EW8564 Weather Reports


time (UTC)temp
C
wind
direction
speed
KPH
gust
KPH
rain 1hr
cm
rain 24hr
cm
rain mn
cm
humidity
%
barometer
mb
20260504232245 20 55 1.6 19.3 0.00 0.00 0.00 32 1002.7
20260504231244 19 104 0.0 12.9 0.00 0.00 0.00 33 1002.7
20260504230211 19 129 1.6 12.9 0.00 0.00 0.00 32 1002.7
20260504225137 19 123 1.6 6.4 0.00 0.00 0.00 32 1002.4
20260504224103 20 118 0.0 9.7 0.00 0.00 0.00 31 1002.7
20260504223030 20 115 1.6 9.7 0.00 0.00 0.00 32 1002.7
20260504222029 19 106 0.0 8.0 0.00 0.00 0.00 33 1002.7
20260504221028 19 114 0.0 8.0 0.00 0.00 0.00 33 1002.7
20260504215956 20 116 0.0 8.0 0.00 0.00 0.00 33 1002.7
20260504214956 20 136 1.6 8.0 0.00 0.00 0.00 32 1002.7
20260504213955 20 56 0.0 6.4 0.00 0.00 0.00 33 1002.7
20260504212954 19 160 0.0 6.4 0.00 0.00 0.00 32 1003.0
20260504211953 19 26 0.0 24.1 0.00 0.00 0.00 34 1003.0
20260504210921 20 7 0.0 24.1 0.00 0.00 0.00 32 1003.0
20260504205920 19 54 1.6 19.3 0.00 0.00 0.00 34 1003.4
20260504204817 19 110 0.0 19.3 0.00 0.00 0.00 32 1003.4
20260504203816 19 127 1.6 19.3 0.00 0.00 0.00 32 1003.4
20260504202744 19 134 3.2 9.7 0.00 0.00 0.00 33 1003.4
20260504201743 19 97 1.6 8.0 0.00 0.00 0.00 32 1003.4
20260504200711 18 46 0.0 6.4 0.00 0.00 0.00 33 1003.4
20260504195710 19 97 0.0 6.4 0.00 0.00 0.00 33 1003.4
20260504194637 18 116 1.6 11.3 0.00 0.00 0.00 33 1003.4
20260504193636 18 167 4.8 11.3 0.00 0.00 0.00 33 1003.4
20260504192604 18 116 1.6 12.9 0.00 0.00 0.00 34 1003.7
20260504191603 18 126 1.6 12.9 0.00 0.00 0.00 35 1003.7
20260504190602 17 129 1.6 12.9 0.00 0.00 0.00 36 1003.7
20260504185601 17 151 4.8 12.9 0.00 0.00 0.00 36 1004.1
20260504184600 18 161 0.0 11.3 0.00 0.00 0.00 34 1004.1
20260504183559 17 156 4.8 20.9 0.00 0.00 0.00 35 1004.1
20260504182558 17 123 3.2 20.9 0.00 0.00 0.00 35 1004.1
20260504181557 17 187 0.0 16.1 0.00 0.00 0.00 37 1004.4
20260504180556 17 146 4.8 16.1 0.00 0.00 0.00 37 1004.4
20260504175554 17 152 3.2 12.9 0.00 0.00 0.00 37 1004.4
20260504174552 17 152 6.4 14.5 0.00 0.00 0.00 37 1004.7
20260504173519 16 149 6.4 14.5 0.00 0.00 0.00 38 1004.7
20260504172519 16 172 1.6 16.1 0.00 0.00 0.00 39 1004.7
20260504171516 16 154 4.8 16.1 0.00 0.00 0.00 38 1005.1
20260504170515 16 161 1.6 16.1 0.00 0.00 0.00 39 1005.1
20260504160438 14 138 3.2 19.3 0.00 0.00 0.00 39 1006.1
20260504150432 13 146 6.4 22.5 0.00 0.00 0.00 42 1006.8
20260504140425 11 133 4.8 14.5 0.00 0.00 0.00 51 1006.8
20260504130347 9 142 0.0 12.9 0.00 0.00 0.00 63 1006.1
20260504110303 9 142 8.0 20.9 0.00 0.00 0.00 74 1004.7
20260504100226 7 239 0.0 0.0 0.00 0.00 0.00 80 1003.7
20260504081143 9 239 0.0 0.0 0.00 0.00 0.00 77 1002.7
20260504080142 9 239 0.0 0.0 0.00 0.00 0.00 77 1002.7
20260504070136 10 239 0.0 0.0 0.00 0.00 0.00 73 1002.7
20260504060130 11 239 0.0 0.0 0.00 0.00 0.00 68 1002.4
20260504045052 13 239 0.0 0.0 0.00 0.00 0.00 62 1001.7
20260504044051 13 239 0.0 0.0 0.00 0.00 0.00 61 1001.7
20260504043050 13 239 0.0 0.0 0.00 0.00 0.00 60 1001.7
20260504042049 13 238 0.0 0.0 0.00 0.00 0.00 58 1001.4
20260504041048 14 238 0.0 0.0 0.00 0.00 0.00 57 1001.4
20260504040047 15 238 0.0 0.0 0.00 0.00 0.00 55 1001.4
20260504035015 15 238 0.0 0.0 0.00 0.00 0.00 53 1001.0
20260504034014 15 238 0.0 0.0 0.00 0.00 0.00 53 1001.0
20260504032942 16 238 0.0 0.0 0.00 0.00 0.00 52 1000.7
20260504031941 16 238 0.0 0.0 0.00 0.00 0.00 51 1000.7
20260504030940 17 238 0.0 0.0 0.00 0.00 0.00 49 1000.3
20260504025939 17 237 0.0 0.0 0.00 0.00 0.00 45 1000.3
20260504024938 18 237 0.0 0.0 0.00 0.00 0.00 44 1000.3
20260504023937 19 227 0.0 0.0 0.00 0.00 0.00 43 1000.0
20260504022936 20 227 0.0 0.0 0.00 0.00 0.00 40 1000.0
20260504021935 21 227 0.0 0.0 0.00 0.00 0.00 37 1000.0
20260504020934 21 227 0.0 1.6 0.00 0.00 0.00 37 1000.0
20260504015933 21 227 0.0 1.6 0.00 0.00 0.00 33 1000.0
20260504014932 22 227 0.0 0.0 0.00 0.00 0.00 33 1000.0
20260504013900 23 231 0.0 0.0 0.00 0.00 0.00 28 1000.0
20260504012827 24 230 0.0 1.6 0.00 0.00 0.00 25 1000.0
20260504011826 25 223 0.0 1.6 0.00 0.00 0.00 23 1000.0
20260504010825 25 333 0.0 3.2 0.00 0.00 0.00 20 1000.3
20260504005824 25 306 0.0 16.1 0.00 0.00 0.00 21 1000.3
20260504004822 25 314 3.2 16.1 0.00 0.00 0.00 19 1000.7
20260504003750 25 32 0.0 16.1 0.00 0.00 0.00 20 1000.7
20260504002748 25 304 0.0 3.2 0.00 0.00 0.00 20 1000.7
20260504001747 25 276 0.0 14.5 0.00 0.00 0.00 20 1000.7
20260504000715 25 310 0.0 14.5 0.00 0.00 0.00 19 1001.0
20260503235714 25 33 0.0 20.9 0.00 0.00 0.00 20 1001.0
20260503234713 25 318 1.6 20.9 0.00 0.00 0.00 21 1001.0
20260503233712 25 295 12.9 19.3 0.00 0.00 0.00 21 1001.0